| time (UTC) | temp F | wind direction | speed knots | gust knots | rain 1hr in | rain 24hr in | rain mn in | humidity % | barometer mb |
| 20260506050929 | 40 | 0.0 | 0.0 | 0.00 | 0.03 | 0.00 | 90 | 1004.0 | |
| 20260506044921 | 40 | 0.0 | 0.0 | 0.00 | 0.03 | 0.00 | 88 | 1004.0 | |
| 20260506043921 | 40 | 0.0 | 0.0 | 0.00 | 0.03 | 0.00 | 85 | 1004.4 | |
| 20260506042929 | 39 | 0.0 | 0.0 | 0.00 | 0.03 | 0.00 | 86 | 1004.4 | |
| 20260506041921 | 39 | 0.0 | 0.0 | 0.00 | 0.03 | 0.00 | 87 | 1004.3 | |
| 20260506040929 | 39 | 0.0 | 0.0 | 0.00 | 0.03 | 0.00 | 88 | 1004.4 | |
| 20260506035921 | 39 | 0.0 | 0.0 | 0.00 | 0.03 | 0.00 | 88 | 1004.4 | |
| 20260506034929 | 39 | 0.0 | 0.0 | 0.00 | 0.03 | 0.00 | 86 | 1004.4 | |
| 20260506033921 | 39 | 0.0 | 0.0 | 0.00 | 0.03 | 0.00 | 88 | 1004.8 | |
| 20260506032921 | 39 | 0.0 | 0.0 | 0.00 | 0.03 | 0.00 | 88 | 1004.9 | |
| 20260506031921 | 39 | 0.0 | 0.0 | 0.00 | 0.03 | 0.00 | 92 | 1005.2 | |
| 20260506030929 | 39 | 0.0 | 0.0 | 0.00 | 0.03 | 0.00 | 90 | 1005.2 | |
| 20260506025923 | 38 | 0.0 | 0.0 | 0.00 | 0.03 | 0.00 | 91 | 1005.2 | |
| 20260506024929 | 38 | 0.0 | 0.0 | 0.00 | 0.03 | 0.00 | 93 | 1005.6 | |
| 20260506023941 | 38 | 0.0 | 0.0 | 0.00 | 0.03 | 0.00 | 94 | 1005.6 | |
| 20260506022929 | 38 | 0.0 | 0.0 | 0.00 | 0.03 | 0.00 | 93 | 1005.8 | |
| 20260506021921 | 38 | 0.0 | 0.0 | 0.00 | 0.03 | 0.00 | 94 | 1006.0 | |
| 20260506020921 | 38 | 0.0 | 0.0 | 0.00 | 0.03 | 0.00 | 93 | 1006.0 | |
| 20260506015921 | 38 | 0.0 | 0.0 | 0.00 | 0.03 | 0.00 | 93 | 1006.0 | |
| 20260506014929 | 39 | 0.0 | 0.0 | 0.00 | 0.03 | 0.00 | 93 | 1006.0 | |
| 20260506013921 | 39 | 0.0 | 0.0 | 0.00 | 0.03 | 0.00 | 91 | 1006.0 | |
| 20260506012929 | 39 | 0.0 | 0.0 | 0.00 | 0.03 | 0.00 | 92 | 1006.0 | |
| 20260506011921 | 39 | 0.0 | 0.0 | 0.00 | 0.03 | 0.00 | 93 | 1006.0 | |
| 20260506010929 | 39 | 0.0 | 0.0 | 0.00 | 0.03 | 0.00 | 91 | 1006.4 | |
| 20260506005941 | 39 | 0.0 | 0.0 | 0.00 | 0.03 | 0.00 | 91 | 1006.7 | |
| 20260506004921 | 39 | 0.0 | 0.0 | 0.00 | 0.03 | 0.00 | 91 | 1006.8 | |
| 20260506003941 | 39 | 0.0 | 0.0 | 0.00 | 0.03 | 0.00 | 91 | 1006.8 | |
| 20260506002929 | 40 | 0.0 | 0.0 | 0.00 | 0.03 | 0.00 | 90 | 1006.9 | |
| 20260506001921 | 40 | 0.0 | 0.0 | 0.00 | 0.03 | 0.00 | 90 | 1006.8 | |
| 20260506000929 | 39 | 0.0 | 0.0 | 0.00 | 0.03 | 0.00 | 89 | 1007.2 | |
| 20260505235921 | 39 | 0.0 | 0.0 | 0.00 | 0.03 | 0.00 | 90 | 1007.2 | |
| 20260505234929 | 40 | 0.0 | 0.0 | 0.00 | 0.03 | 0.00 | 91 | 1007.2 | |
| 20260505233921 | 39 | 47 | 1.7 | 4.3 | 0.00 | 0.03 | 0.00 | 91 | 1007.6 |
| 20260505232922 | 39 | 0.0 | 0.0 | 0.00 | 0.03 | 0.00 | 90 | 1007.6 | |
| 20260505231921 | 39 | 80 | 0.0 | 1.7 | 0.00 | 0.03 | 0.00 | 91 | 1008.0 |
| 20260505231009 | 39 | 0.0 | 0.0 | 0.00 | 0.03 | 0.00 | 91 | 1007.6 | |
| 20260505225921 | 39 | 0.0 | 0.0 | 0.00 | 0.03 | 0.00 | 91 | 1007.2 | |
| 20260505224929 | 39 | 97 | 2.6 | 4.3 | 0.00 | 0.03 | 0.00 | 91 | 1007.6 |
| 20260505223921 | 39 | 85 | 1.7 | 4.3 | 0.00 | 0.03 | 0.00 | 91 | 1007.6 |
| 20260505222929 | 40 | 113 | 0.0 | 1.7 | 0.00 | 0.03 | 0.00 | 91 | 1008.0 |
| 20260505221941 | 40 | 79 | 6.1 | 8.7 | 0.00 | 0.03 | 0.00 | 93 | 1008.0 |
| 20260505220924 | 40 | 0.0 | 0.0 | 0.00 | 0.03 | 0.00 | 90 | 1008.0 | |
| 20260505215941 | 40 | 0.0 | 0.0 | 0.00 | 0.03 | 0.03 | 90 | 1008.0 | |
| 20260505214929 | 40 | 0.0 | 0.0 | 0.00 | 0.03 | 0.03 | 88 | 1008.0 | |
| 20260505213921 | 40 | 0.0 | 0.0 | 0.00 | 0.03 | 0.03 | 88 | 1008.0 | |
| 20260505212929 | 40 | 0.0 | 0.0 | 0.00 | 0.03 | 0.03 | 87 | 1008.0 | |
| 20260505211921 | 41 | 0.0 | 0.0 | 0.00 | 0.03 | 0.03 | 89 | 1008.4 | |
| 20260505210929 | 41 | 73 | 8.7 | 11.3 | 0.00 | 0.03 | 0.03 | 89 | 1008.4 |
| 20260505205920 | 42 | 91 | 9.6 | 13.0 | 0.00 | 0.03 | 0.03 | 88 | 1008.3 |
| 20260505204920 | 42 | 120 | 6.1 | 8.7 | 0.00 | 0.03 | 0.03 | 82 | 1008.4 |
| 20260505203920 | 42 | 34 | 0.9 | 1.7 | 0.00 | 0.03 | 0.03 | 80 | 1008.4 |
| 20260505202929 | 42 | 339 | 0.9 | 1.7 | 0.00 | 0.03 | 0.03 | 82 | 1008.4 |
| 20260505201921 | 42 | 23 | 0.0 | 1.7 | 0.00 | 0.03 | 0.03 | 82 | 1008.3 |
| 20260505200928 | 42 | 0.0 | 0.0 | 0.00 | 0.03 | 0.03 | 80 | 1008.3 | |
| 20260505195940 | 43 | 0.0 | 0.0 | 0.00 | 0.03 | 0.03 | 81 | 1008.4 | |
| 20260505194929 | 43 | 0.0 | 0.0 | 0.00 | 0.03 | 0.03 | 78 | 1008.0 | |
| 20260505193921 | 43 | 128 | 4.3 | 7.0 | 0.00 | 0.03 | 0.03 | 77 | 1008.0 |
| 20260505192921 | 43 | 0.0 | 0.0 | 0.00 | 0.03 | 0.03 | 79 | 1008.0 | |
| 20260505191940 | 42 | 0.0 | 0.0 | 0.00 | 0.03 | 0.03 | 80 | 1008.0 | |
| 20260505190949 | 42 | 0.0 | 0.0 | 0.00 | 0.03 | 0.03 | 81 | 1008.0 | |
| 20260505185920 | 43 | 0.0 | 0.0 | 0.00 | 0.03 | 0.03 | 81 | 1007.7 | |
| 20260505184928 | 43 | 84 | 0.9 | 1.7 | 0.00 | 0.03 | 0.03 | 82 | 1008.0 |
| 20260505183920 | 43 | 0.0 | 0.0 | 0.00 | 0.03 | 0.03 | 81 | 1008.0 | |
| 20260505182928 | 43 | 0.0 | 0.0 | 0.00 | 0.03 | 0.03 | 81 | 1007.9 | |
| 20260505181920 | 44 | 61 | 3.5 | 7.0 | 0.00 | 0.03 | 0.03 | 78 | 1007.6 |
| 20260505180941 | 44 | 0.0 | 0.0 | 0.00 | 0.03 | 0.03 | 78 | 1007.9 | |
| 20260505175920 | 44 | 61 | 1.7 | 7.0 | 0.00 | 0.03 | 0.03 | 79 | 1007.6 |
| 20260505174928 | 44 | 164 | 1.7 | 4.3 | 0.00 | 0.03 | 0.03 | 78 | 1007.6 |
| 20260505173940 | 44 | 0.0 | 0.0 | 0.00 | 0.03 | 0.03 | 78 | 1007.7 | |
| 20260505172928 | 44 | 163 | 3.5 | 7.0 | 0.00 | 0.03 | 0.03 | 78 | 1007.8 |
| 20260505171921 | 44 | 107 | 5.2 | 8.7 | 0.00 | 0.03 | 0.03 | 77 | 1007.6 |
| 20260505170928 | 44 | 101 | 5.2 | 8.7 | 0.00 | 0.03 | 0.03 | 79 | 1007.6 |
| 20260505165920 | 44 | 110 | 8.7 | 11.3 | 0.00 | 0.03 | 0.03 | 78 | 1008.0 |
| 20260505164921 | 44 | 111 | 3.5 | 7.0 | 0.00 | 0.03 | 0.03 | 78 | 1007.7 |
| 20260505163920 | 44 | 101 | 4.3 | 7.0 | 0.00 | 0.03 | 0.03 | 77 | 1007.8 |
| 20260505163009 | 44 | 96 | 3.5 | 7.0 | 0.00 | 0.03 | 0.03 | 77 | 1007.6 |
| 20260505161940 | 44 | 97 | 0.9 | 4.3 | 0.00 | 0.03 | 0.03 | 78 | 1007.7 |
| 20260505160928 | 45 | 101 | 6.1 | 11.3 | 0.00 | 0.03 | 0.03 | 78 | 1008.0 |
| 20260505152920 | 45 | 133 | 8.7 | 11.3 | 0.00 | 0.03 | 0.03 | 76 | 1007.6 |
| 20260505151920 | 45 | 145 | 5.2 | 7.0 | 0.00 | 0.03 | 0.03 | 76 | 1007.6 |
| 20260505150928 | 45 | 100 | 3.5 | 7.0 | 0.00 | 0.03 | 0.03 | 74 | 1007.6 |
| 20260505124920 | 45 | 255 | 4.3 | 7.0 | 0.00 | 0.03 | 0.03 | 74 | 1008.4 |
| 20260505123940 | 45 | 0.0 | 0.0 | 0.00 | 0.03 | 0.03 | 71 | 1008.4 | |
| 20260505122928 | 46 | 100 | 2.6 | 7.0 | 0.00 | 0.03 | 0.03 | 72 | 1008.4 |
| 20260505121920 | 46 | 165 | 4.3 | 7.0 | 0.00 | 0.03 | 0.03 | 72 | 1008.4 |
| 20260505120928 | 47 | 237 | 0.9 | 7.0 | 0.00 | 0.03 | 0.03 | 73 | 1008.6 |
| 20260505115920 | 47 | 219 | 7.8 | 11.3 | 0.00 | 0.03 | 0.03 | 72 | 1008.8 |
| 20260505114928 | 47 | 228 | 5.2 | 11.3 | 0.00 | 0.03 | 0.03 | 72 | 1008.8 |
| 20260505113920 | 46 | 245 | 5.2 | 8.7 | 0.00 | 0.03 | 0.03 | 75 | 1008.6 |
| 20260505112920 | 46 | 235 | 7.8 | 13.0 | 0.00 | 0.03 | 0.03 | 75 | 1008.8 |
| 20260505111920 | 46 | 286 | 2.6 | 7.0 | 0.00 | 0.03 | 0.03 | 76 | 1008.8 |
| 20260505110928 | 45 | 168 | 5.2 | 8.7 | 0.00 | 0.03 | 0.03 | 76 | 1008.8 |
| 20260505101920 | 43 | 110 | 5.2 | 8.7 | 0.00 | 0.03 | 0.03 | 89 | 1009.0 |
| 20260505100920 | 42 | 0.0 | 0.0 | 0.00 | 0.03 | 0.03 | 91 | 1009.2 | |
| 20260505095920 | 42 | 0.0 | 0.0 | 0.00 | 0.03 | 0.03 | 94 | 1009.2 | |
| 20260505094928 | 42 | 0.0 | 0.0 | 0.00 | 0.03 | 0.03 | 90 | 1008.8 | |
| 20260505093328 | 42 | 0.0 | 0.0 | 0.00 | 0.03 | 0.03 | 97 | 1008.8 | |
| 20260505092320 | 42 | 0.0 | 0.0 | 0.00 | 0.03 | 0.03 | 96 | 1008.8 | |
| 20260505091348 | 42 | 0.0 | 0.0 | 0.00 | 0.03 | 0.03 | 94 | 1008.8 | |
| 20260505090340 | 41 | 0.0 | 0.0 | 0.00 | 0.03 | 0.03 | 98 | 1008.4 | |
| 20260505085328 | 41 | 0.0 | 0.0 | 0.00 | 0.03 | 0.03 | 98 | 1008.8 | |
| 20260505084320 | 41 | 0.0 | 0.0 | 0.00 | 0.03 | 0.03 | 99 | 1008.8 | |
| 20260505083320 | 41 | 0.0 | 0.0 | 0.00 | 0.03 | 0.03 | 99 | 1008.8 | |
| 20260505082320 | 41 | 0.0 | 0.0 | 0.00 | 0.03 | 0.03 | 99 | 1008.6 | |
| 20260505081328 | 41 | 0.0 | 0.0 | 0.00 | 0.03 | 0.03 | 99 | 1008.8 | |
| 20260505080320 | 41 | 0.0 | 0.0 | 0.00 | 0.03 | 0.03 | 99 | 1009.2 | |
| 20260505075328 | 41 | 0.0 | 0.0 | 0.00 | 0.03 | 0.03 | 99 | 1008.8 | |
| 20260505074320 | 40 | 0.0 | 0.0 | 0.01 | 0.03 | 0.03 | 99 | 1008.8 | |
| 20260505073328 | 40 | 0.0 | 0.0 | 0.01 | 0.03 | 0.03 | 98 | 1008.8 | |
| 20260505072320 | 40 | 0.0 | 0.0 | 0.01 | 0.03 | 0.03 | 99 | 1009.1 | |
| 20260505071340 | 40 | 0.0 | 0.0 | 0.01 | 0.03 | 0.03 | 99 | 1008.8 | |
| 20260505070320 | 40 | 0.0 | 0.0 | 0.01 | 0.03 | 0.03 | 99 | 1009.2 | |
| 20260505065328 | 40 | 0.0 | 0.0 | 0.02 | 0.03 | 0.03 | 99 | 1009.2 | |
| 20260505064320 | 40 | 0.0 | 0.0 | 0.01 | 0.02 | 0.02 | 99 | 1009.2 | |
| 20260505063328 | 40 | 0.0 | 0.0 | 0.01 | 0.02 | 0.02 | 99 | 1009.2 | |
| 20260505062320 | 41 | 0.0 | 0.0 | 0.01 | 0.02 | 0.02 | 98 | 1009.2 | |
| 20260505061348 | 40 | 0.0 | 0.0 | 0.02 | 0.02 | 0.02 | 95 | 1009.5 | |
| 20260505060400 | 40 | 0.0 | 0.0 | 0.02 | 0.02 | 0.02 | 94 | 1009.2 |